| time (UTC) | temp C | wind direction | speed KPH | gust KPH | rain 1hr cm | rain 24hr cm | rain mn cm | humidity % | barometer mb |
| 20260506153602 | 30 | 337 | 0.0 | 4.8 | 0.00 | 0.00 | 0.00 | 76 | 1008.9 |
| 20260506153334 | 30 | 227 | 1.6 | 11.3 | 0.00 | 0.00 | 0.00 | 76 | 1008.8 |
| 20260506153051 | 30 | 0 | 0.0 | 9.7 | 0.00 | 0.00 | 0.00 | 75 | 1009.0 |
| 20260506152601 | 30 | 354 | 1.6 | 11.3 | 0.00 | 0.00 | 0.00 | 75 | 1008.8 |
| 20260506152102 | 30 | 311 | 0.0 | 3.2 | 0.00 | 0.00 | 0.00 | 76 | 1008.9 |
| 20260506151604 | 30 | 283 | 0.0 | 3.2 | 0.00 | 0.00 | 0.00 | 77 | 1008.8 |
| 20260506151100 | 29 | 169 | 0.0 | 3.2 | 0.00 | 0.00 | 0.00 | 78 | 1008.9 |
| 20260506150818 | 29 | 70 | 0.0 | 9.7 | 0.00 | 0.00 | 0.00 | 78 | 1008.9 |
| 20260506150049 | 29 | 321 | 0.0 | 9.7 | 0.00 | 0.00 | 0.00 | 79 | 1009.0 |
| 20260506145536 | 29 | 60 | 0.0 | 6.4 | 0.00 | 0.00 | 0.00 | 79 | 1009.0 |
| 20260506145032 | 28 | 337 | 0.0 | 6.4 | 0.00 | 0.00 | 0.00 | 79 | 1009.1 |
| 20260506144548 | 28 | 295 | 0.0 | 6.4 | 0.00 | 0.00 | 0.00 | 79 | 1009.4 |
| 20260506144532 | 28 | 186 | 0.0 | 6.4 | 0.00 | 0.00 | 0.00 | 80 | 1009.1 |
| 20260506144020 | 28 | 91 | 0.0 | 6.4 | 0.00 | 0.00 | 0.00 | 81 | 1009.0 |
| 20260506143510 | 28 | 284 | 0.0 | 3.2 | 0.00 | 0.00 | 0.00 | 81 | 1009.2 |
| 20260506143227 | 27 | 211 | 0.0 | 3.2 | 0.00 | 0.00 | 0.00 | 83 | 1009.3 |
| 20260506143054 | 27 | 0 | 0.0 | 3.2 | 0.00 | 0.00 | 0.00 | 82 | 1009.6 |
| 20260506142505 | 27 | 10 | 0.0 | 1.6 | 0.00 | 0.00 | 0.00 | 83 | 1009.3 |
| 20260506142004 | 27 | 43 | 0.0 | 6.4 | 0.00 | 0.00 | 0.00 | 84 | 1009.4 |
| 20260506141550 | 27 | 0 | 0.0 | 4.8 | 0.00 | 0.00 | 0.00 | 83 | 1009.7 |
| 20260506141504 | 27 | 242 | 0.0 | 6.4 | 0.00 | 0.00 | 0.00 | 84 | 1009.4 |
| 20260506141227 | 27 | 256 | 0.0 | 9.7 | 0.00 | 0.00 | 0.00 | 84 | 1009.4 |
| 20260506140503 | 27 | 130 | 0.0 | 9.7 | 0.00 | 0.00 | 0.00 | 84 | 1009.4 |
| 20260506140103 | 26 | 211 | 0.0 | 3.2 | 0.00 | 0.00 | 0.00 | 83 | 1009.6 |
| 20260506140003 | 27 | 262 | 0.0 | 3.2 | 0.00 | 0.00 | 0.00 | 84 | 1009.4 |
| 20260506135502 | 27 | 156 | 0.0 | 3.2 | 0.00 | 0.00 | 0.00 | 84 | 1009.4 |
| 20260506135000 | 27 | 156 | 0.0 | 3.2 | 0.00 | 0.00 | 0.00 | 83 | 1009.3 |
| 20260506134545 | 26 | 0 | 0.0 | 11.3 | 0.00 | 0.00 | 0.00 | 83 | 1009.6 |
| 20260506134501 | 27 | 191 | 0.0 | 4.8 | 0.00 | 0.00 | 0.00 | 84 | 1009.3 |
| 20260506134001 | 27 | 191 | 0.0 | 12.9 | 0.00 | 0.00 | 0.00 | 84 | 1009.2 |
| 20260506133501 | 27 | 228 | 0.0 | 12.9 | 0.00 | 0.00 | 0.00 | 84 | 1009.3 |
| 20260506133053 | 26 | 0 | 0.0 | 4.8 | 0.00 | 0.00 | 0.00 | 84 | 1009.6 |
| 20260506133001 | 26 | 172 | 0.0 | 3.2 | 0.00 | 0.00 | 0.00 | 85 | 1009.3 |
| 20260506132501 | 26 | 241 | 0.0 | 3.2 | 0.00 | 0.00 | 0.00 | 85 | 1009.3 |
| 20260506132000 | 26 | 44 | 0.0 | 3.2 | 0.00 | 0.00 | 0.00 | 86 | 1009.3 |
| 20260506131552 | 26 | 0 | 0.0 | 4.8 | 0.00 | 0.00 | 0.00 | 85 | 1009.7 |
| 20260506131503 | 26 | 44 | 0.0 | 3.2 | 0.00 | 0.00 | 0.00 | 86 | 1009.3 |
| 20260506130958 | 26 | 160 | 0.0 | 4.8 | 0.00 | 0.00 | 0.00 | 86 | 1009.4 |
| 20260506130457 | 26 | 256 | 0.0 | 4.8 | 0.00 | 0.00 | 0.00 | 86 | 1009.2 |
| 20260506130110 | 26 | 0 | 0.0 | 1.6 | 0.00 | 0.00 | 0.00 | 86 | 1009.4 |
| 20260506125957 | 26 | 354 | 0.0 | 1.6 | 0.00 | 0.00 | 0.00 | 86 | 1009.1 |
| 20260506125451 | 26 | 354 | 0.0 | 1.6 | 0.00 | 0.00 | 0.00 | 86 | 1009.0 |
| 20260506124949 | 26 | 294 | 0.0 | 1.6 | 0.00 | 0.00 | 0.00 | 86 | 1009.0 |
| 20260506124550 | 26 | 0 | 0.0 | 4.8 | 0.00 | 0.00 | 0.00 | 86 | 1009.1 |
| 20260506124442 | 26 | 235 | 0.0 | 6.4 | 0.00 | 0.00 | 0.00 | 86 | 1008.9 |
| 20260506123935 | 26 | 235 | 0.0 | 8.0 | 0.00 | 0.00 | 0.00 | 86 | 1008.9 |
| 20260506123435 | 26 | 190 | 0.0 | 9.7 | 0.00 | 0.00 | 0.00 | 86 | 1008.8 |
| 20260506123157 | 26 | 201 | 1.6 | 8.0 | 0.00 | 0.00 | 0.00 | 86 | 1008.7 |
| 20260506123052 | 26 | 0 | 1.6 | 9.7 | 0.00 | 0.00 | 0.00 | 85 | 1008.9 |
| 20260506122433 | 26 | 323 | 0.0 | 3.2 | 0.00 | 0.00 | 0.00 | 86 | 1008.6 |
| 20260506121929 | 26 | 248 | 0.0 | 8.0 | 0.00 | 0.00 | 0.00 | 86 | 1008.5 |
| 20260506121551 | 26 | 0 | 0.0 | 6.4 | 0.00 | 0.00 | 0.00 | 86 | 1008.6 |
| 20260506121430 | 26 | 309 | 0.0 | 8.0 | 0.00 | 0.00 | 0.00 | 86 | 1008.3 |
| 20260506121149 | 26 | 139 | 0.0 | 4.8 | 0.00 | 0.00 | 0.00 | 86 | 1008.1 |
| 20260506120429 | 26 | 283 | 0.0 | 3.2 | 0.00 | 0.00 | 0.00 | 86 | 1008.0 |
| 20260506120053 | 26 | 0 | 0.0 | 3.2 | 0.00 | 0.00 | 0.00 | 86 | 1008.2 |
| 20260506115928 | 26 | 283 | 0.0 | 3.2 | 0.00 | 0.00 | 0.00 | 86 | 1007.9 |
| 20260506115428 | 26 | 351 | 0.0 | 0.0 | 0.00 | 0.00 | 0.00 | 87 | 1007.8 |
| 20260506114928 | 26 | 351 | 0.0 | 0.0 | 0.00 | 0.00 | 0.00 | 87 | 1007.8 |
| 20260506114716 | 26 | 351 | 0.0 | 1.6 | 0.00 | 0.00 | 0.00 | 87 | 1007.9 |
| 20260506114553 | 26 | 0 | 0.0 | 3.2 | 0.00 | 0.00 | 0.00 | 86 | 1008.0 |
| 20260506113929 | 26 | 351 | 0.0 | 6.4 | 0.00 | 0.00 | 0.00 | 87 | 1007.6 |
| 20260506113428 | 26 | 139 | 0.0 | 6.4 | 0.00 | 0.00 | 0.00 | 87 | 1007.6 |
| 20260506113047 | 26 | 0 | 0.0 | 4.8 | 0.00 | 0.00 | 0.00 | 86 | 1007.8 |
| 20260506112929 | 26 | 316 | 0.0 | 3.2 | 0.00 | 0.00 | 0.00 | 87 | 1007.5 |
| 20260506112429 | 26 | 90 | 0.0 | 0.0 | 0.00 | 0.00 | 0.00 | 87 | 1007.5 |
| 20260506111929 | 26 | 90 | 0.0 | 0.0 | 0.00 | 0.00 | 0.00 | 87 | 1007.4 |
| 20260506111911 | 26 | 90 | 0.0 | 0.0 | 0.00 | 0.00 | 0.00 | 87 | 1007.4 |
| 20260506111550 | 26 | 0 | 0.0 | 0.0 | 0.00 | 0.00 | 0.00 | 86 | 1007.7 |
| 20260506110930 | 26 | 43 | 0.0 | 0.0 | 0.00 | 0.00 | 0.00 | 86 | 1007.4 |
| 20260506110430 | 26 | 43 | 0.0 | 1.6 | 0.00 | 0.00 | 0.00 | 86 | 1007.4 |
| 20260506110100 | 26 | 0 | 0.0 | 1.6 | 0.00 | 0.00 | 0.00 | 86 | 1007.6 |
| 20260506105931 | 26 | 43 | 0.0 | 1.6 | 0.00 | 0.00 | 0.00 | 86 | 1007.3 |
| 20260506105430 | 26 | 158 | 0.0 | 1.6 | 0.00 | 0.00 | 0.00 | 86 | 1007.2 |
| 20260506104928 | 26 | 237 | 0.0 | 6.4 | 0.00 | 0.00 | 0.00 | 86 | 1007.1 |
| 20260506104558 | 26 | 0 | 0.0 | 4.8 | 0.00 | 0.00 | 0.00 | 86 | 1007.4 |
| 20260506104430 | 26 | 281 | 0.0 | 6.4 | 0.00 | 0.00 | 0.00 | 86 | 1007.0 |
| 20260506103929 | 26 | 139 | 0.0 | 4.8 | 0.00 | 0.00 | 0.00 | 86 | 1007.0 |
| 20260506103429 | 26 | 195 | 0.0 | 0.0 | 0.00 | 0.00 | 0.00 | 86 | 1007.0 |
| 20260506103051 | 26 | 0 | 0.0 | 0.0 | 0.00 | 0.00 | 0.00 | 85 | 1007.2 |
| 20260506102928 | 26 | 195 | 0.0 | 0.0 | 0.00 | 0.00 | 0.00 | 86 | 1006.9 |
| 20260506102653 | 26 | 195 | 0.0 | 4.8 | 0.00 | 0.00 | 0.00 | 86 | 1006.8 |
| 20260506101929 | 26 | 195 | 0.0 | 4.8 | 0.00 | 0.00 | 0.00 | 86 | 1006.8 |
| 20260506101556 | 26 | 0 | 0.0 | 6.4 | 0.00 | 0.00 | 0.00 | 85 | 1006.9 |
| 20260506101430 | 26 | 146 | 0.0 | 0.0 | 0.00 | 0.00 | 0.00 | 86 | 1006.7 |
| 20260506100929 | 26 | 157 | 0.0 | 8.0 | 0.00 | 0.00 | 0.00 | 86 | 1006.7 |
| 20260506100523 | 26 | 27 | 0.0 | 9.7 | 0.00 | 0.00 | 0.00 | 85 | 1006.5 |
| 20260506100445 | 26 | 326 | 0.0 | 8.0 | 0.00 | 0.00 | 0.00 | 85 | 1006.5 |
| 20260506100050 | 26 | 0 | 0.0 | 8.0 | 0.00 | 0.00 | 0.00 | 85 | 1007.0 |
| 20260506095429 | 26 | 27 | 0.0 | 9.7 | 0.00 | 0.00 | 0.00 | 85 | 1006.6 |
| 20260506095154 | 26 | 84 | 0.0 | 9.7 | 0.00 | 0.00 | 0.00 | 85 | 1006.5 |
| 20260506094557 | 26 | 0 | 0.0 | 11.3 | 0.00 | 0.00 | 0.00 | 84 | 1006.8 |
| 20260506094431 | 26 | 146 | 0.0 | 9.7 | 0.00 | 0.00 | 0.00 | 85 | 1006.5 |
| 20260506093923 | 26 | 316 | 1.6 | 9.7 | 0.00 | 0.00 | 0.00 | 85 | 1006.6 |
| 20260506093423 | 26 | 4 | 1.6 | 11.3 | 0.00 | 0.00 | 0.00 | 85 | 1006.6 |
| 20260506093055 | 26 | 0 | 0.0 | 11.3 | 0.00 | 0.00 | 0.00 | 84 | 1006.8 |
| 20260506092921 | 26 | 297 | 0.0 | 11.3 | 0.00 | 0.00 | 0.00 | 85 | 1006.6 |
| 20260506092420 | 26 | 299 | 0.0 | 12.9 | 0.00 | 0.00 | 0.00 | 85 | 1006.6 |
| 20260506091920 | 26 | 46 | 1.6 | 12.9 | 0.00 | 0.00 | 0.00 | 85 | 1006.6 |
| 20260506091548 | 26 | 0 | 1.6 | 14.5 | 0.00 | 0.00 | 0.00 | 85 | 1006.8 |
| 20260506091418 | 26 | 8 | 1.6 | 9.7 | 0.00 | 0.00 | 0.00 | 85 | 1006.7 |
| 20260506090917 | 26 | 124 | 1.6 | 9.7 | 0.00 | 0.00 | 0.00 | 85 | 1006.6 |
| 20260506090412 | 26 | 138 | 0.0 | 14.5 | 0.00 | 0.00 | 0.00 | 85 | 1006.7 |
| 20260506090052 | 26 | 267 | 1.6 | 14.5 | 0.00 | 0.00 | 0.00 | 85 | 1007.0 |
| 20260506085912 | 26 | 313 | 3.2 | 14.5 | 0.00 | 0.00 | 0.00 | 85 | 1006.7 |
| 20260506085407 | 26 | 247 | 1.6 | 12.9 | 0.00 | 0.00 | 0.00 | 85 | 1006.7 |
| 20260506084906 | 26 | 221 | 1.6 | 12.9 | 0.00 | 0.00 | 0.00 | 85 | 1006.8 |
| 20260506084553 | 26 | 346 | 1.6 | 14.5 | 0.00 | 0.00 | 0.00 | 84 | 1007.1 |
| 20260506084403 | 26 | 39 | 0.0 | 11.3 | 0.00 | 0.00 | 0.00 | 85 | 1006.7 |
| 20260506083903 | 26 | 219 | 1.6 | 12.9 | 0.00 | 0.00 | 0.00 | 85 | 1006.7 |
| 20260506083403 | 26 | 231 | 1.6 | 14.5 | 0.00 | 0.00 | 0.00 | 85 | 1006.9 |
| 20260506083051 | 26 | 314 | 1.6 | 17.7 | 0.00 | 0.00 | 0.00 | 85 | 1007.1 |
| 20260506082902 | 26 | 323 | 3.2 | 17.7 | 0.00 | 0.00 | 0.00 | 85 | 1006.9 |
| 20260506082402 | 26 | 197 | 3.2 | 17.7 | 0.00 | 0.00 | 0.00 | 85 | 1007.0 |
| 20260506082124 | 26 | 272 | 1.6 | 17.7 | 0.00 | 0.00 | 0.00 | 85 | 1007.0 |
| 20260506081625 | 26 | 251 | 1.6 | 17.7 | 0.00 | 0.00 | 0.00 | 85 | 1007.1 |
| 20260506081549 | 26 | 39 | 0.0 | 17.7 | 0.00 | 0.00 | 0.00 | 85 | 1007.3 |
| 20260506080901 | 26 | 248 | 1.6 | 17.7 | 0.00 | 0.00 | 0.00 | 86 | 1007.1 |
| 20260506080402 | 26 | 214 | 0.0 | 17.7 | 0.00 | 0.00 | 0.00 | 86 | 1007.0 |
| 20260506073402 | 26 | 259 | 1.6 | 14.5 | 0.00 | 0.00 | 0.00 | 86 | 1007.3 |
| 20260506073050 | 26 | 331 | 1.6 | 12.9 | 0.00 | 0.00 | 0.00 | 86 | 1007.6 |
| 20260506072903 | 26 | 352 | 1.6 | 14.5 | 0.00 | 0.00 | 0.00 | 86 | 1007.3 |
| 20260506072626 | 26 | 265 | 0.0 | 9.7 | 0.00 | 0.00 | 0.00 | 86 | 1007.3 |
| 20260506071902 | 26 | 192 | 0.0 | 14.5 | 0.00 | 0.00 | 0.00 | 86 | 1007.4 |
| 20260506071613 | 26 | 45 | 0.0 | 19.3 | 0.00 | 0.00 | 0.00 | 86 | 1007.6 |
| 20260506071606 | 26 | 0 | 1.6 | 17.7 | 0.00 | 0.00 | 0.00 | 85 | 1007.7 |
| 20260506071559 | 26 | 310 | 3.2 | 17.7 | 0.00 | 0.00 | 0.00 | 86 | 1007.5 |
| 20260506070402 | 26 | 49 | 3.2 | 19.3 | 0.00 | 0.00 | 0.00 | 86 | 1007.6 |
| 20260506070132 | 26 | 231 | 0.0 | 16.1 | 0.00 | 0.00 | 0.00 | 86 | 1007.6 |
| 20260506062402 | 26 | 158 | 1.6 | 12.9 | 0.00 | 0.00 | 0.00 | 85 | 1008.0 |
| 20260506061902 | 26 | 76 | 0.0 | 11.3 | 0.00 | 0.00 | 0.00 | 85 | 1008.0 |
| 20260506061553 | 26 | 179 | 1.6 | 14.5 | 0.00 | 0.00 | 0.00 | 85 | 1008.2 |
| 20260506061401 | 26 | 331 | 1.6 | 12.9 | 0.00 | 0.00 | 0.00 | 85 | 1008.0 |
| 20260506060901 | 26 | 245 | 3.2 | 12.9 | 0.00 | 0.00 | 0.00 | 85 | 1008.2 |
| 20260506060402 | 26 | 141 | 1.6 | 14.5 | 0.00 | 0.00 | 0.00 | 85 | 1008.1 |
| 20260506051402 | 27 | 217 | 1.6 | 12.9 | 0.00 | 0.00 | 0.00 | 84 | 1008.4 |
| 20260506050903 | 27 | 304 | 0.0 | 12.9 | 0.00 | 0.00 | 0.00 | 84 | 1008.4 |
| 20260506050402 | 27 | 88 | 0.0 | 8.0 | 0.00 | 0.00 | 0.00 | 84 | 1008.5 |
| 20260506044902 | 27 | 217 | 1.6 | 14.5 | 0.00 | 0.00 | 0.00 | 83 | 1008.6 |
| 20260506044555 | 26 | 0 | 0.0 | 14.5 | 0.00 | 0.00 | 0.00 | 83 | 1008.9 |
| 20260506044401 | 27 | 81 | 1.6 | 16.1 | 0.00 | 0.00 | 0.00 | 83 | 1008.6 |
| 20260506043902 | 27 | 250 | 1.6 | 16.1 | 0.00 | 0.00 | 0.00 | 83 | 1008.6 |
| 20260506043401 | 27 | 290 | 1.6 | 9.7 | 0.00 | 0.00 | 0.00 | 83 | 1008.6 |
| 20260506043050 | 27 | 0 | 0.0 | 12.9 | 0.00 | 0.00 | 0.00 | 82 | 1008.9 |
| 20260506042901 | 27 | 205 | 0.0 | 12.9 | 0.00 | 0.00 | 0.00 | 83 | 1008.5 |
| 20260506042401 | 27 | 165 | 3.2 | 14.5 | 0.00 | 0.00 | 0.00 | 83 | 1008.7 |
| 20260506041901 | 27 | 63 | 1.6 | 14.5 | 0.00 | 0.00 | 0.00 | 83 | 1008.7 |
| 20260506041603 | 27 | 0 | 3.2 | 16.1 | 0.00 | 0.00 | 0.00 | 82 | 1008.9 |
| 20260506041400 | 27 | 69 | 3.2 | 11.3 | 0.00 | 0.00 | 0.00 | 83 | 1008.7 |
| 20260506040902 | 27 | 13 | 0.0 | 11.3 | 0.00 | 0.00 | 0.00 | 83 | 1008.6 |
| 20260506040403 | 27 | 354 | 0.0 | 14.5 | 0.00 | 0.00 | 0.00 | 82 | 1008.6 |
| 20260506040050 | 27 | 68 | 1.6 | 16.1 | 0.00 | 0.00 | 0.00 | 82 | 1008.9 |
| 20260506035903 | 27 | 326 | 1.6 | 14.5 | 0.00 | 0.00 | 0.00 | 82 | 1008.6 |
| 20260506035402 | 27 | 288 | 1.6 | 11.3 | 0.00 | 0.00 | 0.00 | 82 | 1008.4 |
| 20260506034901 | 27 | 118 | 1.6 | 12.9 | 0.00 | 0.00 | 0.00 | 82 | 1008.3 |
| 20260506034547 | 27 | 0 | 0.0 | 16.1 | 0.00 | 0.00 | 0.00 | 81 | 1008.6 |
| 20260506034400 | 27 | 160 | 3.2 | 12.9 | 0.00 | 0.00 | 0.00 | 82 | 1008.4 |
| 20260506033901 | 27 | 271 | 3.2 | 17.7 | 0.00 | 0.00 | 0.00 | 82 | 1008.3 |
| 20260506033401 | 27 | 72 | 0.0 | 17.7 | 0.00 | 0.00 | 0.00 | 82 | 1008.1 |
| 20260506033058 | 27 | 187 | 1.6 | 16.1 | 0.00 | 0.00 | 0.00 | 81 | 1008.3 |
| 20260506032901 | 27 | 234 | 3.2 | 14.5 | 0.00 | 0.00 | 0.00 | 82 | 1008.1 |
| 20260506032842 | 27 | 212 | 6.4 | 14.5 | 0.00 | 0.00 | 0.00 | 81 | 1008.0 |
| 20260506031901 | 27 | 296 | 1.6 | 17.7 | 0.00 | 0.00 | 0.00 | 82 | 1008.0 |
| 20260506031621 | 27 | 306 | 3.2 | 17.7 | 0.00 | 0.00 | 0.00 | 81 | 1008.0 |
| 20260506031554 | 27 | 30 | 4.8 | 17.7 | 0.00 | 0.00 | 0.00 | 81 | 1008.3 |
| 20260506030902 | 27 | 147 | 3.2 | 16.1 | 0.00 | 0.00 | 0.00 | 81 | 1008.0 |
| 20260506030649 | 27 | 167 | 4.8 | 16.1 | 0.00 | 0.00 | 0.00 | 81 | 1007.9 |
| 20260506030052 | 27 | 202 | 1.6 | 12.9 | 0.00 | 0.00 | 0.00 | 80 | 1008.0 |
| 20260506025902 | 27 | 94 | 0.0 | 14.5 | 0.00 | 0.00 | 0.00 | 81 | 1007.8 |
| 20260506025847 | 27 | 301 | 3.2 | 12.9 | 0.00 | 0.00 | 0.00 | 81 | 1007.7 |
| 20260506024902 | 27 | 181 | 1.6 | 12.9 | 0.00 | 0.00 | 0.00 | 81 | 1007.7 |
| 20260506024552 | 27 | 312 | 0.0 | 19.3 | 0.00 | 0.00 | 0.00 | 80 | 1007.9 |
| 20260506024401 | 27 | 202 | 1.6 | 20.9 | 0.00 | 0.00 | 0.00 | 81 | 1007.6 |
| 20260506023901 | 27 | 222 | 4.8 | 20.9 | 0.00 | 0.00 | 0.00 | 81 | 1007.5 |
| 20260506023401 | 27 | 108 | 3.2 | 17.7 | 0.00 | 0.00 | 0.00 | 81 | 1007.4 |
| 20260506023052 | 27 | 269 | 1.6 | 16.1 | 0.00 | 0.00 | 0.00 | 80 | 1007.7 |
| 20260506022902 | 27 | 24 | 1.6 | 14.5 | 0.00 | 0.00 | 0.00 | 80 | 1007.3 |
| 20260506022403 | 27 | 147 | 3.2 | 14.5 | 0.00 | 0.00 | 0.00 | 80 | 1007.4 |
| 20260506021902 | 27 | 311 | 0.0 | 14.5 | 0.00 | 0.00 | 0.00 | 80 | 1007.3 |
| 20260506021545 | 27 | 0 | 1.6 | 12.9 | 0.00 | 0.00 | 0.00 | 79 | 1007.4 |
| 20260506021401 | 27 | 143 | 0.0 | 14.5 | 0.00 | 0.00 | 0.00 | 80 | 1007.2 |
| 20260506020902 | 27 | 309 | 0.0 | 14.5 | 0.00 | 0.00 | 0.00 | 80 | 1007.2 |
| 20260506020403 | 27 | 328 | 3.2 | 14.5 | 0.00 | 0.00 | 0.00 | 80 | 1007.0 |
| 20260506020052 | 27 | 105 | 1.6 | 16.1 | 0.00 | 0.00 | 0.00 | 79 | 1007.2 |
| 20260506015902 | 27 | 254 | 1.6 | 12.9 | 0.00 | 0.00 | 0.00 | 79 | 1006.9 |
| 20260506015403 | 27 | 148 | 1.6 | 19.3 | 0.00 | 0.00 | 0.00 | 79 | 1006.7 |
| 20260506014902 | 28 | 307 | 1.6 | 19.3 | 0.00 | 0.00 | 0.00 | 79 | 1006.7 |
| 20260506014557 | 27 | 58 | 0.0 | 14.5 | 0.00 | 0.00 | 0.00 | 78 | 1006.9 |
| 20260506014402 | 28 | 200 | 1.6 | 12.9 | 0.00 | 0.00 | 0.00 | 78 | 1006.7 |
| 20260506014120 | 28 | 49 | 0.0 | 14.5 | 0.00 | 0.00 | 0.00 | 78 | 1006.7 |
| 20260506013403 | 28 | 218 | 1.6 | 19.3 | 0.00 | 0.00 | 0.00 | 78 | 1006.6 |
| 20260506013055 | 27 | 248 | 4.8 | 19.3 | 0.00 | 0.00 | 0.00 | 77 | 1006.9 |
| 20260506012903 | 28 | 331 | 6.4 | 19.3 | 0.00 | 0.00 | 0.00 | 78 | 1006.6 |
| 20260506012403 | 28 | 354 | 1.6 | 19.3 | 0.00 | 0.00 | 0.00 | 77 | 1006.6 |
| 20260506011903 | 28 | 95 | 3.2 | 19.3 | 0.00 | 0.00 | 0.00 | 77 | 1006.3 |
| 20260506011548 | 28 | 323 | 1.6 | 19.3 | 0.00 | 0.00 | 0.00 | 77 | 1006.6 |
| 20260506011402 | 28 | 290 | 1.6 | 12.9 | 0.00 | 0.00 | 0.00 | 77 | 1006.3 |
| 20260506010902 | 28 | 328 | 1.6 | 12.9 | 0.00 | 0.00 | 0.00 | 77 | 1006.2 |
| 20260506010402 | 28 | 11 | 0.0 | 14.5 | 0.00 | 0.00 | 0.00 | 77 | 1006.1 |
| 20260506010048 | 28 | 105 | 1.6 | 17.7 | 0.00 | 0.00 | 0.00 | 76 | 1006.2 |
| 20260506005902 | 28 | 354 | 1.6 | 19.3 | 0.00 | 0.00 | 0.00 | 76 | 1006.1 |
| 20260506005402 | 28 | 177 | 1.6 | 19.3 | 0.00 | 0.00 | 0.00 | 76 | 1006.0 |
| 20260506004902 | 28 | 358 | 3.2 | 20.9 | 0.00 | 0.00 | 0.00 | 75 | 1006.0 |
| 20260506004555 | 28 | 153 | 3.2 | 20.9 | 0.00 | 0.00 | 0.00 | 74 | 1006.3 |
| 20260506004402 | 29 | 263 | 3.2 | 20.9 | 0.00 | 0.00 | 0.00 | 74 | 1006.0 |
| 20260506004123 | 29 | 44 | 1.6 | 14.5 | 0.00 | 0.00 | 0.00 | 74 | 1005.9 |
| 20260506003846 | 29 | 313 | 1.6 | 14.5 | 0.00 | 0.00 | 0.00 | 74 | 1005.9 |
| 20260506003128 | 30 | 195 | 1.6 | 14.5 | 0.00 | 0.00 | 0.00 | 73 | 1005.8 |
| 20260506003050 | 29 | 292 | 1.6 | 17.7 | 0.00 | 0.00 | 0.00 | 73 | 1006.1 |
| 20260506002403 | 30 | 352 | 3.2 | 14.5 | 0.00 | 0.00 | 0.00 | 73 | 1005.8 |
| 20260506001902 | 30 | 165 | 6.4 | 16.1 | 0.00 | 0.00 | 0.00 | 72 | 1005.6 |
| 20260506001609 | 30 | 219 | 1.6 | 20.9 | 0.00 | 0.00 | 0.00 | 71 | 1005.9 |
| 20260506001401 | 30 | 223 | 3.2 | 20.9 | 0.00 | 0.00 | 0.00 | 71 | 1005.5 |
| 20260506000900 | 30 | 261 | 6.4 | 20.9 | 0.00 | 0.00 | 0.00 | 71 | 1005.4 |
| 20260506000401 | 30 | 174 | 3.2 | 11.3 | 0.00 | 0.00 | 0.00 | 70 | 1005.4 |
| 20260506000055 | 30 | 233 | 1.6 | 17.7 | 0.00 | 0.00 | 0.00 | 69 | 1005.8 |
| 20260505235901 | 31 | 111 | 3.2 | 17.7 | 0.00 | 0.00 | 0.00 | 69 | 1005.4 |
| 20260505235401 | 31 | 280 | 1.6 | 17.7 | 0.00 | 0.00 | 0.00 | 68 | 1005.4 |
| 20260505234901 | 31 | 139 | 4.8 | 16.1 | 0.00 | 0.00 | 0.00 | 68 | 1005.2 |
| 20260505234553 | 31 | 239 | 1.6 | 11.3 | 0.00 | 0.00 | 0.00 | 67 | 1005.5 |
| 20260505234401 | 31 | 105 | 3.2 | 11.3 | 0.00 | 0.00 | 0.00 | 68 | 1005.3 |
| 20260505233900 | 31 | 134 | 0.0 | 11.3 | 0.00 | 0.00 | 0.00 | 67 | 1005.3 |
| 20260505233403 | 31 | 181 | 3.2 | 16.1 | 0.00 | 0.00 | 0.00 | 67 | 1005.3 |
| 20260505233056 | 31 | 248 | 1.6 | 17.7 | 0.00 | 0.00 | 0.00 | 66 | 1005.5 |
| 20260505232901 | 31 | 214 | 3.2 | 19.3 | 0.00 | 0.00 | 0.00 | 67 | 1005.1 |
| 20260505232401 | 31 | 109 | 4.8 | 19.3 | 0.00 | 0.00 | 0.00 | 67 | 1005.2 |
| 20260505231901 | 31 | 33 | 3.2 | 19.3 | 0.00 | 0.00 | 0.00 | 67 | 1005.1 |
| 20260505231553 | 31 | 16 | 6.4 | 17.7 | 0.00 | 0.00 | 0.00 | 66 | 1005.4 |
| 20260505231400 | 31 | 20 | 9.7 | 16.1 | 0.00 | 0.00 | 0.00 | 67 | 1005.3 |
| 20260505230901 | 31 | 135 | 3.2 | 16.1 | 0.00 | 0.00 | 0.00 | 66 | 1005.2 |
| 20260505230403 | 32 | 294 | 1.6 | 16.1 | 0.00 | 0.00 | 0.00 | 66 | 1005.3 |
| 20260505230056 | 31 | 271 | 1.6 | 17.7 | 0.00 | 0.00 | 0.00 | 65 | 1005.7 |
| 20260505225903 | 32 | 225 | 4.8 | 16.1 | 0.00 | 0.00 | 0.00 | 66 | 1005.3 |
| 20260505225401 | 32 | 322 | 3.2 | 14.5 | 0.00 | 0.00 | 0.00 | 65 | 1005.3 |
| 20260505224901 | 32 | 300 | 3.2 | 16.1 | 0.00 | 0.00 | 0.00 | 65 | 1005.2 |
| 20260505224633 | 32 | 355 | 6.4 | 16.1 | 0.00 | 0.00 | 0.00 | 65 | 1005.2 |
| 20260505224548 | 32 | 316 | 4.8 | 16.1 | 0.00 | 0.00 | 0.00 | 64 | 1005.6 |
| 20260505223900 | 33 | 207 | 1.6 | 14.5 | 0.00 | 0.00 | 0.00 | 65 | 1005.3 |
| 20260505223403 | 32 | 245 | 1.6 | 14.5 | 0.00 | 0.00 | 0.00 | 64 | 1005.4 |
| 20260505223058 | 32 | 198 | 4.8 | 17.7 | 0.00 | 0.00 | 0.00 | 64 | 1005.6 |
| 20260505222903 | 32 | 259 | 4.8 | 16.1 | 0.00 | 0.00 | 0.00 | 64 | 1005.5 |
| 20260505222402 | 32 | 268 | 3.2 | 17.7 | 0.00 | 0.00 | 0.00 | 64 | 1005.4 |
| 20260505221902 | 32 | 238 | 9.7 | 17.7 | 0.00 | 0.00 | 0.00 | 64 | 1005.5 |
| 20260505221620 | 32 | 101 | 6.4 | 17.7 | 0.00 | 0.00 | 0.00 | 63 | 1005.4 |
| 20260505221555 | 32 | 260 | 4.8 | 17.7 | 0.00 | 0.00 | 0.00 | 63 | 1005.6 |
| 20260505220902 | 33 | 200 | 6.4 | 16.1 | 0.00 | 0.00 | 0.00 | 63 | 1005.6 |
| 20260505220403 | 33 | 349 | 6.4 | 19.3 | 0.00 | 0.00 | 0.00 | 63 | 1005.5 |
| 20260505220047 | 32 | 240 | 3.2 | 17.7 | 0.00 | 0.00 | 0.00 | 63 | 1005.8 |
| 20260505215902 | 33 | 347 | 6.4 | 19.3 | 0.00 | 0.00 | 0.00 | 63 | 1005.5 |
| 20260505215628 | 33 | 195 | 6.4 | 17.7 | 0.00 | 0.00 | 0.00 | 63 | 1005.4 |
| 20260505215122 | 33 | 41 | 8.0 | 14.5 | 0.00 | 0.00 | 0.00 | 63 | 1005.6 |
| 20260505214558 | 33 | 179 | 1.6 | 19.3 | 0.00 | 0.00 | 0.00 | 62 | 1005.9 |
| 20260505214402 | 33 | 103 | 1.6 | 19.3 | 0.00 | 0.00 | 0.00 | 63 | 1005.6 |
| 20260505214124 | 33 | 297 | 4.8 | 19.3 | 0.00 | 0.00 | 0.00 | 62 | 1005.8 |
| 20260505213621 | 33 | 348 | 4.8 | 17.7 | 0.00 | 0.00 | 0.00 | 63 | 1005.9 |
| 20260505213058 | 33 | 0 | 4.8 | 17.7 | 0.00 | 0.00 | 0.00 | 62 | 1006.1 |
| 20260505212901 | 33 | 182 | 8.0 | 17.7 | 0.00 | 0.00 | 0.00 | 62 | 1006.0 |
| 20260505212401 | 33 | 60 | 6.4 | 17.7 | 0.00 | 0.00 | 0.00 | 62 | 1005.8 |
| 20260505211900 | 33 | 213 | 6.4 | 14.5 | 0.00 | 0.00 | 0.00 | 62 | 1006.0 |
| 20260505211632 | 33 | 74 | 3.2 | 17.7 | 0.00 | 0.00 | 0.00 | 62 | 1006.1 |
| 20260505211548 | 33 | 82 | 3.2 | 16.1 | 0.00 | 0.00 | 0.00 | 62 | 1006.3 |
| 20260505210901 | 33 | 265 | 1.6 | 17.7 | 0.00 | 0.00 | 0.00 | 62 | 1006.1 |
| 20260505210415 | 33 | 209 | 3.2 | 16.1 | 0.00 | 0.00 | 0.00 | 62 | 1006.2 |
| 20260505210056 | 33 | 0 | 3.2 | 16.1 | 0.00 | 0.00 | 0.00 | 61 | 1006.4 |
| 20260505205903 | 33 | 18 | 3.2 | 16.1 | 0.00 | 0.00 | 0.00 | 64 | 1006.1 |
| 20260505205648 | 33 | 139 | 3.2 | 14.5 | 0.00 | 0.00 | 0.00 | 61 | 1006.1 |
| 20260505205120 | 34 | 223 | 4.8 | 22.5 | 0.00 | 0.00 | 0.00 | 61 | 1006.2 |
| 20260505204549 | 33 | 267 | 3.2 | 20.9 | 0.00 | 0.00 | 0.00 | 60 | 1006.5 |
| 20260505204402 | 34 | 84 | 1.6 | 22.5 | 0.00 | 0.00 | 0.00 | 60 | 1006.2 |
| 20260505203900 | 34 | 296 | 6.4 | 17.7 | 0.00 | 0.00 | 0.00 | 61 | 1006.3 |
| 20260505203401 | 34 | 329 | 3.2 | 17.7 | 0.00 | 0.00 | 0.00 | 59 | 1006.3 |
| 20260505203052 | 33 | 0 | 3.2 | 17.7 | 0.00 | 0.00 | 0.00 | 60 | 1006.6 |
| 20260505202901 | 34 | 67 | 1.6 | 16.1 | 0.00 | 0.00 | 0.00 | 59 | 1006.3 |
| 20260505202401 | 34 | 278 | 1.6 | 16.1 | 0.00 | 0.00 | 0.00 | 60 | 1006.3 |
| 20260505201901 | 34 | 226 | 1.6 | 12.9 | 0.00 | 0.00 | 0.00 | 60 | 1006.4 |
| 20260505201557 | 33 | 26 | 3.2 | 16.1 | 0.00 | 0.00 | 0.00 | 59 | 1006.7 |
| 20260505201359 | 34 | 229 | 3.2 | 16.1 | 0.00 | 0.00 | 0.00 | 59 | 1006.4 |
| 20260505200856 | 34 | 285 | 1.6 | 16.1 | 0.00 | 0.00 | 0.00 | 59 | 1006.5 |
| 20260505200356 | 34 | 290 | 6.4 | 14.5 | 0.00 | 0.00 | 0.00 | 59 | 1006.5 |
| 20260505200048 | 34 | 150 | 1.6 | 19.3 | 0.00 | 0.00 | 0.00 | 59 | 1006.7 |
| 20260505195855 | 34 | 281 | 0.0 | 16.1 | 0.00 | 0.00 | 0.00 | 62 | 1006.5 |
| 20260505195354 | 33 | 194 | 4.8 | 17.7 | 0.00 | 0.00 | 0.00 | 60 | 1006.7 |
| 20260505194854 | 33 | 59 | 8.0 | 17.7 | 0.00 | 0.00 | 0.00 | 61 | 1006.8 |
| 20260505194837 | 33 | 10 | 3.2 | 16.1 | 0.00 | 0.00 | 0.00 | 61 | 1006.8 |
| 20260505194548 | 33 | 308 | 0.0 | 14.5 | 0.00 | 0.00 | 0.00 | 61 | 1007.1 |
| 20260505193853 | 33 | 131 | 6.4 | 16.1 | 0.00 | 0.00 | 0.00 | 62 | 1006.8 |
| 20260505193352 | 33 | 186 | 6.4 | 16.1 | 0.00 | 0.00 | 0.00 | 60 | 1006.8 |
| 20260505193051 | 33 | 63 | 3.2 | 16.1 | 0.00 | 0.00 | 0.00 | 59 | 1007.2 |
| 20260505192852 | 34 | 333 | 1.6 | 17.7 | 0.00 | 0.00 | 0.00 | 59 | 1006.9 |
| 20260505192352 | 34 | 51 | 4.8 | 17.7 | 0.00 | 0.00 | 0.00 | 60 | 1007.2 |
| 20260505191851 | 33 | 177 | 1.6 | 12.9 | 0.00 | 0.00 | 0.00 | 61 | 1007.2 |
| 20260505191556 | 33 | 234 | 1.6 | 12.9 | 0.00 | 0.00 | 0.00 | 60 | 1007.4 |
| 20260505191350 | 33 | 165 | 1.6 | 9.7 | 0.00 | 0.00 | 0.00 | 60 | 1007.3 |
| 20260505191112 | 33 | 202 | 1.6 | 8.0 | 0.00 | 0.00 | 0.00 | 60 | 1007.3 |
| 20260505190608 | 33 | 315 | 1.6 | 17.7 | 0.00 | 0.00 | 0.00 | 61 | 1007.4 |
| 20260505190104 | 33 | 328 | 1.6 | 19.3 | 0.00 | 0.00 | 0.00 | 61 | 1007.8 |
| 20260505185846 | 33 | 17 | 3.2 | 17.7 | 0.00 | 0.00 | 0.00 | 60 | 1007.5 |
| 20260505185346 | 33 | 148 | 3.2 | 14.5 | 0.00 | 0.00 | 0.00 | 60 | 1007.6 |
| 20260505184845 | 33 | 265 | 1.6 | 11.3 | 0.00 | 0.00 | 0.00 | 59 | 1007.6 |
| 20260505184604 | 33 | 356 | 0.0 | 14.5 | 0.00 | 0.00 | 0.00 | 61 | 1007.9 |
| 20260505184344 | 33 | 305 | 0.0 | 14.5 | 0.00 | 0.00 | 0.00 | 62 | 1007.7 |
| 20260505183831 | 33 | 266 | 3.2 | 14.5 | 0.00 | 0.00 | 0.00 | 59 | 1007.8 |
| 20260505183329 | 33 | 200 | 4.8 | 11.3 | 0.00 | 0.00 | 0.00 | 60 | 1007.8 |
| 20260505183052 | 32 | 276 | 4.8 | 16.1 | 0.00 | 0.00 | 0.00 | 61 | 1008.1 |
| 20260505182828 | 33 | 154 | 3.2 | 20.9 | 0.00 | 0.00 | 0.00 | 62 | 1007.9 |
| 20260505182329 | 32 | 243 | 1.6 | 20.9 | 0.00 | 0.00 | 0.00 | 62 | 1008.1 |
| 20260505182117 | 32 | 210 | 8.0 | 20.9 | 0.00 | 0.00 | 0.00 | 61 | 1008.1 |
| 20260505181551 | 32 | 276 | 4.8 | 20.9 | 0.00 | 0.00 | 0.00 | 63 | 1008.3 |
| 20260505181544 | 32 | 93 | 1.6 | 20.9 | 0.00 | 0.00 | 0.00 | 61 | 1008.5 |
| 20260505180828 | 33 | 207 | 1.6 | 16.1 | 0.00 | 0.00 | 0.00 | 62 | 1008.4 |
| 20260505180548 | 32 | 236 | 3.2 | 16.1 | 0.00 | 0.00 | 0.00 | 62 | 1008.5 |
| 20260505180051 | 32 | 0 | 1.6 | 17.7 | 0.00 | 0.00 | 0.00 | 63 | 1008.8 |
| 20260505175829 | 32 | 76 | 4.8 | 17.7 | 0.00 | 0.00 | 0.00 | 63 | 1008.4 |
| 20260505175329 | 32 | 19 | 3.2 | 17.7 | 0.00 | 0.00 | 0.00 | 63 | 1008.5 |
| 20260505174829 | 32 | 13 | 1.6 | 14.5 | 0.00 | 0.00 | 0.00 | 62 | 1008.5 |
| 20260505174550 | 32 | 0 | 1.6 | 16.1 | 0.00 | 0.00 | 0.00 | 62 | 1008.8 |
| 20260505174328 | 32 | 131 | 1.6 | 14.5 | 0.00 | 0.00 | 0.00 | 64 | 1008.7 |
| 20260505173828 | 32 | 282 | 4.8 | 14.5 | 0.00 | 0.00 | 0.00 | 63 | 1008.7 |
| 20260505173329 | 32 | 229 | 3.2 | 16.1 | 0.00 | 0.00 | 0.00 | 65 | 1008.7 |
| 20260505173049 | 31 | 255 | 3.2 | 25.7 | 0.00 | 0.00 | 0.00 | 63 | 1009.0 |
| 20260505172830 | 32 | 119 | 3.2 | 25.7 | 0.00 | 0.00 | 0.00 | 65 | 1008.7 |
| 20260505172331 | 31 | 59 | 3.2 | 25.7 | 0.00 | 0.00 | 0.00 | 65 | 1008.7 |
| 20260505171830 | 31 | 269 | 1.6 | 16.1 | 0.00 | 0.00 | 0.00 | 65 | 1008.6 |
| 20260505171550 | 31 | 0 | 4.8 | 19.3 | 0.00 | 0.00 | 0.00 | 65 | 1008.8 |
| 20260505171330 | 31 | 308 | 4.8 | 19.3 | 0.00 | 0.00 | 0.00 | 66 | 1008.7 |
| 20260505170829 | 31 | 37 | 3.2 | 19.3 | 0.00 | 0.00 | 0.00 | 67 | 1008.6 |
| 20260505170328 | 31 | 105 | 0.0 | 11.3 | 0.00 | 0.00 | 0.00 | 69 | 1008.8 |
| 20260505170057 | 30 | 0 | 3.2 | 16.1 | 0.00 | 0.00 | 0.00 | 67 | 1009.2 |
| 20260505165329 | 31 | 334 | 0.0 | 16.1 | 0.00 | 0.00 | 0.00 | 68 | 1009.0 |
| 20260505164830 | 30 | 1 | 3.2 | 16.1 | 0.00 | 0.00 | 0.00 | 67 | 1009.0 |
| 20260505164549 | 30 | 0 | 0.0 | 9.7 | 0.00 | 0.00 | 0.00 | 67 | 1009.4 |
| 20260505164329 | 30 | 206 | 0.0 | 11.3 | 0.00 | 0.00 | 0.00 | 69 | 1009.1 |
| 20260505163829 | 30 | 307 | 1.6 | 11.3 | 0.00 | 0.00 | 0.00 | 68 | 1009.2 |
| 20260505163328 | 30 | 52 | 0.0 | 12.9 | 0.00 | 0.00 | 0.00 | 69 | 1009.2 |
| 20260505163102 | 30 | 322 | 1.6 | 17.7 | 0.00 | 0.00 | 0.00 | 68 | 1009.5 |
| 20260505163052 | 30 | 229 | 1.6 | 14.5 | 0.00 | 0.00 | 0.00 | 70 | 1009.2 |
| 20260505162816 | 30 | 182 | 0.0 | 17.7 | 0.00 | 0.00 | 0.00 | 71 | 1009.3 |
| 20260505161819 | 30 | 184 | 3.2 | 12.9 | 0.00 | 0.00 | 0.00 | 70 | 1009.4 |
| 20260505161556 | 30 | 0 | 3.2 | 19.3 | 0.00 | 0.00 | 0.00 | 69 | 1009.6 |
| 20260505161317 | 30 | 256 | 3.2 | 19.3 | 0.00 | 0.00 | 0.00 | 69 | 1009.4 |
| 20260505160816 | 30 | 77 | 4.8 | 19.3 | 0.00 | 0.00 | 0.00 | 70 | 1009.4 |
| 20260505160316 | 30 | 311 | 3.2 | 17.7 | 0.00 | 0.00 | 0.00 | 70 | 1009.5 |